User: anonymous   Login
Location: Eferding
(48.3167°N, 14.0167°E)
Time: 22:29:32
(UTC+00:00)
Language:

Cosmos 1238 Rocket - Orbit

View from above orbital plane
View from above orbital plane
View from above satellite
View from above satellite

Ground track
Ground track

The orbit data is extracted from the following two-line orbital elements,

1 12139U 81003B   20027.21858496 +.00001352 +00000-0 +63292-4 0  9999
2 12139 082.9455 080.7074 0463564 327.2452 030.0761 14.56782340985740
Epoch (UTC): 27 January 2020 05:14:45
Eccentricity: 0.0463564
inclination: 82.9455°
perigee height: 375 km
apogee height: 1032 km
right ascension of ascending node: 80.7074°
argument of perigee: 327.2452°
revolutions per day: 14.56782340
mean anomaly at epoch: 30.0761°
orbit number at epoch: 98574

The dashed part of the orbit path shows where the satellite is in the earth's shadow,  

DLR